Tracking 22879 objects as of 20-Apr-2021
HD Live streaming from Space Station
objects crossing your sky now

UNHA 3 R/B

Track UNHA 3 R/B now!
10-day predictions


NORAD ID: 41333
Int'l Code: 2016-009B
Perigee: 425.3 km
Apogee: 477.2 km
Inclination: 97.3 °
Period: 93.5 minutes
Semi major axis: 6822 km
RCS: Unknown
Launch date: February 7, 2016
Source: North Korea (NKOR)
Launch site: Yunsong, DPRK (YUN)

Note: This is a ROCKET BODY
aabbcc
Your satellite tracking list
Your tracking list is empty




NASA's NSSDC Master Catalog

Two Line Element Set (TLE):
1 41333U 16009B   21109.83654680  .00003917  00000-0  95755-4 0  9998
2 41333  97.3433 203.3705 0038046   4.1811 355.9746 15.40683718291645
Source of the keplerian elements: AFSPC